#timestamp,LO_Frequency,Hit,StdDev 
1671883215.6,286047000.7,N
1671883235.5,286047000.3,N
1671883255.3,286046999.8,N
1671883275.1,286047002.0,N
1671883295.9,286047001.7,N
1671883315.7,286047002.0,N
1671883335.5,286047002.0,N
1671883355.4,286046999.8,N
1671883375.2,286047002.0,N
1671883395.1,286047002.2,N
1671883396.0,286047002.2,N
1671883415.8,286046999.9,N
1671883435.7,286046999.4,N
1671883455.5,286046999.4,N
1671883475.3,286046998.0,N
1671883495.2,286046999.5,N
1671883515.0,286046998.8,N
1671883515.9,286046998.8,N
1671883535.8,286046998.5,N
1671883555.6,286046998.1,N
1671883575.4,286046999.2,N
1671883595.3,286046997.8,N
1671883615.1,286046999.1,N
1671883635.9,286046998.2,N
1671883655.7,286046999.3,N
1671883675.5,286047001.2,N
1671883695.4,286047001.2,N
1671883715.2,286046998.5,N
1671883735.0,286046998.3,N
1671883735.9,286046998.3,N
1671883755.8,286047000.4,N
1671883775.6,286046999.9,N
1671883795.5,286047002.3,N
1671883815.3,286047002.8,N
1671883835.1,286047000.1,N
1671883855.9,286047000.0,N
1671883875.7,286046998.2,N
1671883895.5,286047000.8,N
1671883915.4,286046998.1,N
1671883935.2,286047000.5,N
1671883955.0,286047002.1,N
1671883956.0,286047002.1,N
1671883975.8,286047002.5,N
1671883995.6,286047002.5,N
1671884015.5,286047002.3,N
1671884035.3,286046998.7,N
1671884055.1,286046997.1,N
1671884075.9,286046997.3,N
1671884095.7,286046998.7,N
1671884115.6,286047001.1,N
1671884135.4,286047000.4,N
1671884155.2,286047000.5,N
1671884175.1,286047002.8,N
1671884176.0,286047002.8,N
1671884195.8,286046999.3,N
1671884215.6,286046997.3,N
1671884235.5,286046997.8,N
1671884255.3,286046997.3,N
1671884275.2,286046997.0,N
1671884295.9,286046997.7,N
1671884315.7,286046998.4,N
1671884335.6,286047001.0,N
1671884355.4,286047000.6,N
1671884375.2,286047000.5,N
1671884395.1,286046998.2,N
1671884396.0,286046998.2,N
1671884415.8,286047000.2,N
1671884435.7,286047001.2,N
1671884455.5,286047001.2,N
1671884475.3,286047001.1,N
1671884495.2,286047000.4,N
1671884515.0,286047000.6,N
1671884515.9,286047000.6,N
1671884535.7,286047000.7,N
1671884555.6,286047001.1,N
1671884575.4,286047000.6,N
1671884595.3,286047002.2,N
1671884615.1,286047001.4,N
1671884616.0,286047001.4,N
1671884635.8,286047000.3,N
1671884655.7,286046998.8,N
1671884675.5,286046999.3,N
1671884695.3,286046999.4,N
1671884715.2,286047000.6,N
1671884735.0,286047001.2,N
1671884735.9,286047001.2,N
1671884755.8,286047001.1,N
1671884775.6,286047001.0,N
1671884795.4,286047001.2,N
1671884815.3,286047000.8,N
1671884835.1,286046998.5,N
1671884855.8,286046998.8,N
1671884875.7,286046998.5,N
1671884895.5,286047000.5,N
1671884915.4,286047001.0,N
1671884935.2,286046997.3,N
1671884955.0,286046997.5,N
1671884955.9,286046997.5,N
1671884975.8,286046997.2,N
1671884995.6,286046996.5,N
1671885015.4,286046997.4,N
1671885035.3,286046997.5,N
1671885055.1,286046999.5,N
1671885075.9,286046999.0,N
1671885095.7,286046999.8,N
1671885115.5,286047001.1,N
1671885135.4,286047000.3,N
1671885155.2,286046999.9,N
1671885175.1,286047002.0,N
1671885176.0,286047002.0,N
1671885195.8,286047002.1,N
1671885215.6,286046999.8,N
1671885235.5,286047004.4,N
1671885255.3,286047002.3,N
1671885275.1,286047002.4,N
1671885295.9,286047002.4,N
1671885315.7,286046998.1,N
1671885335.6,286047001.1,N
1671885355.4,286047000.6,N
1671885375.2,286047002.4,N
1671885395.1,286047002.8,N
1671885396.0,286047002.8,N
1671885415.8,286047000.2,N
1671885435.7,286047002.3,N
1671885455.5,286046999.9,N
1671885475.3,286047002.2,N
1671885495.2,286047002.7,N
1671885515.9,286046999.9,N
1671885535.7,286047000.2,N
1671885555.6,286046996.8,N
1671885575.4,286046999.2,N
1671885595.3,286046998.9,N
1671885615.1,286046997.7,N
1671885616.0,286046997.7,N
1671885635.8,286046999.1,N
1671885685.7,286046998.6,E
1671885695.6,286047002.7,N
1671885715.5,286047002.1,P
1671885735.3,286047002.2,P
1671885755.1,286047001.0,Y
1671885775.9,286046996.4,P
1671885795.7,286046992.2,N
1671885815.5,286046996.1,N
1671885835.4,286046994.9,N
1671885855.2,286046999.4,N
1671885875.1,286046999.1,N
1671885876.0,286046999.1,N
1671885895.8,286046998.1,N
1671885915.6,286047001.0,N
1671885935.5,286046999.9,N
1671885955.3,286047002.5,N
1671885975.2,286047001.9,N
1671885995.1,286047000.0,N
1671885996.0,286047000.0,N
1671886015.8,286046998.1,N
1671886035.6,286046998.5,N
1671886055.5,286047000.6,N
1671886075.3,286047000.3,N
1671886095.1,286047000.3,N
1671886115.9,286047000.6,N
1671886135.7,286047002.8,N
1671886155.6,286047000.0,N
1671886175.4,286046998.2,N
1671886195.2,286046998.8,N
1671886215.1,286046998.4,N
1671886216.0,286046998.4,N
1671886235.8,286046996.6,N
1671886255.7,286046999.5,N
1671886275.5,286046995.0,N
1671886295.3,286046996.2,N
1671886315.2,286046998.7,N
1671886335.0,286046999.4,N
1671886335.9,286046999.4,N
1671886355.8,286046998.6,N
1671886375.6,286046998.7,N
1671886395.4,286046996.6,N
1671886415.3,286046996.5,N
1671886435.1,286046996.9,N
1671886455.9,286046996.9,N
1671886475.7,286046996.8,N
1671886495.5,286046999.3,N
1671886515.4,286046999.0,N
1671886535.2,286046999.3,N
1671886555.0,286046997.1,N
1671886556.0,286046997.1,N
1671886575.8,286046996.5,N
1671886595.6,286046998.7,N
1671886615.5,286046998.4,N
1671886635.3,286046998.4,N
1671886655.1,286046998.8,N
1671886675.9,286047001.1,N
1671886695.7,286046998.1,N
1671886715.6,286047001.0,N
1671886735.4,286047000.1,N
1671886755.2,286046998.8,N
1671886775.1,286046996.5,N
1671886776.0,286046996.5,N
1671886795.8,286046998.3,N
